Overview Statistics Trail Chart Weather Telemetry Raw packets
 

This is the latest recevied weather packets stored in our database for station/object K1BES. If no packets are shown the sender has not sent any weather packets the latest 10 day(s).

<< 37 38 39 40 41 42 43 >>
Time Temp. Humidity Pressure Rain* Wind** Luminosity Snow
1788390509 27.78° C 87% 1015.9 hPa 0 mm - 33 W/m² -
1788390208 27.78° C 87% 1015.9 hPa 0 mm - 30 W/m² -
1788389908 27.78° C 86% 1015.8 hPa 0 mm - 38 W/m² -
1788389603 28.33° C 86% 1015.7 hPa 0 mm - 56 W/m² -
1788389302 28.33° C 85% 1015.6 hPa 0 mm - 73 W/m² -
1788388997 28.33° C 85% 1015.2 hPa 0 mm - 78 W/m² -
1788388694 28.33° C 85% 1015.2 hPa 0 mm - 94 W/m² -
1788388394 28.33° C 84% 1015.3 hPa 0 mm - 101 W/m² -
1788388093 28.33° C 83% 1015.2 hPa 0 mm - 110 W/m² -
1788387793 28.89° C 83% 1015.4 hPa 0 mm - 114 W/m² -
1788387493 28.89° C 82% 1015.4 hPa 0 mm - 125 W/m² -
1788387192 28.89° C 81% 1015.1 hPa 0 mm - 134 W/m² -
1788386888 28.89° C 82% 1015.3 hPa 0 mm - 168 W/m² -
1788386587 28.89° C 82% 1015.2 hPa 0 mm - 145 W/m² -
1788386283 29.44° C 82% 1015.5 hPa 0 mm - 104 W/m² -
1788386000 29.44° C 83% 1015.6 hPa 0 mm - 148 W/m² -
1788385674 28.89° C 84% 1015.4 hPa 0 mm - 108 W/m² -
1788385373 28.89° C 84% 1015.4 hPa 0 mm - 103 W/m² -
1788385068 28.89° C 85% 1015.4 hPa 0 mm - 103 W/m² -
1788384768 29.44° C 85% 1015.1 hPa 0 mm - 108 W/m² -
1788384467 29.44° C 83% 1015.2 hPa 0 mm - 120 W/m² -
1788384164 30° C 81% 1015.5 hPa 1.27 mm - 130 W/m² -
1788383860 30° C 81% 1015.7 hPa 0 mm - 156 W/m² -
1788383556 30.56° C 81% 1015.5 hPa 1.78 mm - 206 W/m² -
1788383256 31.11° C 78% 1015.3 hPa 1.78 mm - 293 W/m² -

* Rain latest hour (hover to see other rain measurements)
** Current wind speed in m/s (hover to see current wind gust speed)